Location: East Guldeford
(50.9500°N, 0.7500°E)
Time: 08:28:44
(UTC+00:00)

Cosmos 1733 Rocket - Pass Details

Date: 12 May 2021
Orbit: 603 x 628 km, 82.5° (Epoch: 16 June)

Event Time Altitude Azimuth Distance (km) Brightness Sun altitude
Rises 23:13:43 0° 341° (NNW) 2,873 8.0 -20.1°
Reaches altitude 10° 23:16:08 10° 331° (NNW) 1,963 6.7 -20.2°
Maximum altitude 23:19:55 30° 270° (W) 1,088 4.3 -20.3°
Enters shadow 23:21:14 25° 238° (WSW) 1,224 4.3 -20.3°
